Regional Weather Roundup
Issued by NWS

Home | Current Version | Previous Version | Text Only | Print | Product List | Glossary On
Versions: 1 2 3 4 5 6 7 8 9 10 11 12 13 14 15 16 17 18 19 20 21 22 23 24 25 26 27 28 29 30 31 32 33 34 35 36 37 38 39 40 41 42 43 44 45 46 47 48 49 50
000
ASUS45 KABQ 010910
RWRNM
WEATHER ROUNDUP FOR NEW MEXICO
NATIONAL WEATHER SERVICE ALBUQUERQUE NM
200 AM MST SUN FEB 01 2015

NOTE: "FAIR" MEANS FEW OR NO CLOUDS BELOW 12,000 FEET AGL WITH NO
       SIGNIFICANT WEATHER OR OBSTRUCTIONS TO VISION.

      THIS PRODUCT IS RELEASED AS TWO VERSIONS.  ONE VERSION NEAR
      THE TOP OF THE HOUR CONTAINING PRELIMINARY DATA FROM ALBUQUERQUE
      AND OTHER STATIONS.  A FINAL VERSION WITH ADDITIONAL DATA IS
      ISSUED ABOUT 10 MINUTES AFTER THE HOUR.

NMZ501-503-504-510>518-011000-
NORTHWEST PLATEAU/NORTHCENTRAL MOUNTAINS

CITY           SKY/WX    TMP DP  RH WIND       PRES   REMARKS
FARMINGTON     CLEAR     32  30  92 W8        29.99R WCI  25
LOS ALAMOS     PTCLDY    29  29 100 CALM      29.97R
SANTA FE       FOG       30  28  92 CALM      29.95R VSB 1/4
TAOS           CLOUDY    30  27  86 NW5       29.97R WCI  25
ANGEL FIRE     FAIR      28  24  83 S8          N/A  WCI  20

$$
NMZ402-403-502-505>509-011000-
WESTCENTRAL MOUNTAINS/SOUTHWEST MOUNTAINS

CITY           SKY/WX    TMP DP  RH WIND       PRES   REMARKS
GALLUP         CLEAR     28  27  96 CALM      30.04R FOG
GRANTS         CLOUDY    33  31  93 W9G20     30.04S WCI  25
SILVER CITY    PTCLDY    37  36  93 NW6       29.99F WCI  33

$$
NMZ407-409-411-412-011000-
SOUTHERN DESERTS

CITY           SKY/WX    TMP DP  RH WIND       PRES   REMARKS
LORDSBURG      CLOUDY    39  37  93 SW5       29.99S
DEMING         PTCLDY    38  37  97 W8        29.97S WCI  32
LAS CRUCES     PTCLDY    42  39  90 W12       29.96R
HOLLOMAN AFB   CLOUDY    42  42 100 CALM      29.92S
ALAMOGORDO     CLOUDY    45  45 100 CALM      29.93F
T OR C         PTCLDY    42  41  96 VRB3      29.95R

$$
NMZ519>523-011000-
CENTRAL VALLEYS/CENTRAL HIGHLANDS

CITY           SKY/WX    TMP DP  RH WIND       PRES   REMARKS
ALBUQUERQUE    PTCLDY    37  32  82 N6        29.99S WCI  32
DOUBLE EAGLE   CLEAR     33  29  87 NW10      29.99S WCI  24
MORIARTY ARPT  FAIR      32  29  87 W13       29.94F WCI  22
CLINES CORNERS CLOUDY    30  29  96 NW17      29.89S WCI  18
BELEN          CLOUDY    37  35  92 N3        30.00R
SOCORRO        CLOUDY    40  37  90 N10G16    29.98R WCI  34

$$
NMZ524>526-539-540-011000-
SOUTHCENTRAL MOUNTAINS

CITY           SKY/WX    TMP DP  RH WIND       PRES   REMARKS
RUIDOSO        PTCLDY    39  32  75 NW9G17    29.95R WCI  33

$$
NMZ527>531-011000-
NORTHEAST HIGHLANDS/NORTHEAST PLAINS

CITY           SKY/WX    TMP DP  RH WIND       PRES   REMARKS
LAS VEGAS      CLEAR     33  24  69 NW6       29.89R WCI  28
RATON          CLEAR     30  27  88 N5        29.88R WCI  25
CLAYTON        CLOUDY    33  31  92 N6        29.88R WCI  28

$$
NMZ532>537-011000-
EASTCENTRAL PLAINS

CITY           SKY/WX    TMP DP  RH WIND       PRES   REMARKS
TUCUMCARI      CLEAR     33  32  96 CALM      29.87R
CANNON AFB     CLEAR     36 N/A N/A CALM      29.86R FOG
CLOVIS AIRPORT CLOUDY    36  34  93 W8        29.86S VSB 1/2 WCI  29

$$
NMZ028-029-538-011000-
SOUTHEAST PLAINS

CITY           SKY/WX    TMP DP  RH WIND       PRES   REMARKS
ROSWELL        FOG       41  41 100 CALM      29.88F VSB 1/4
ARTESIA        FOG       41  41 100 NW7       29.90S VSB 1/4
CARLSBAD       FOG       42  40  92 NE5       29.88S VSB<1/4
HOBBS          FOG       41  41 100 W8        29.89R VSB 1/4


$$


USA.gov is the U.S. government's official web portal to all federal, state and local government web resources and services.